This is the latest recevied weather packets stored in our database for station/object IK2ILW-6. If no packets are shown the sender has not sent any weather packets the latest 10 day(s).
| Time | Temp. | Humidity | Pressure | Rain* | Wind** | Luminosity | Snow |
|---|---|---|---|---|---|---|---|
| 1777689998 | 5.56° C | 69% | 1026.4 hPa | 0 mm | - | 0 W/m² | - |
| 1777689683 | 5.56° C | 65% | 1026.4 hPa | 0 mm | - | 0 W/m² | - |
| 1777689389 | 5.56° C | 61% | 1026.4 hPa | 0 mm | - | 0 W/m² | - |
| 1777689093 | 5° C | 65% | 1026.4 hPa | 0 mm | - | 0 W/m² | - |
| 1777688798 | 5.56° C | 68% | 1026.4 hPa | 0 mm | - | 0 W/m² | - |
| 1777688502 | 5.56° C | 68% | 1026.5 hPa | 0 mm | - | 0 W/m² | - |
| 1777688186 | 6.11° C | 62% | 1026.5 hPa | 0 mm | - | 0 W/m² | - |
| 1777687891 | 6.11° C | 62% | 1026.4 hPa | 0 mm | - | 0 W/m² | - |
| 1777687595 | 6.67° C | 57% | 1026.4 hPa | 0 mm | - | 0 W/m² | - |
| 1777687283 | 6.67° C | 57% | 1026.4 hPa | 0 mm | - | 0 W/m² | - |
| 1777686987 | 6.67° C | 59% | 1026.4 hPa | 0 mm | - | 0 W/m² | - |
| 1777686693 | 6.67° C | 58% | 1026.4 hPa | 0 mm | - | 0 W/m² | - |
| 1777686399 | 6.67° C | 60% | 1026.4 hPa | 0 mm | - | 0 W/m² | - |
| 1777686083 | 7.22° C | 59% | 1026.4 hPa | 0 mm | - | 0 W/m² | - |
| 1777685787 | 7.22° C | 60% | 1026.5 hPa | 0 mm | - | 0 W/m² | - |
| 1777685491 | 7.22° C | 61% | 1026.5 hPa | 0 mm | - | 0 W/m² | - |
| 1777685196 | 7.22° C | 61% | 1026.6 hPa | 0 mm | - | 0 W/m² | - |
| 1777684900 | 6.67° C | 63% | 1026.6 hPa | 0 mm | - | 0 W/m² | - |
| 1777684584 | 7.22° C | 62% | 1026.6 hPa | 0 mm | - | 0 W/m² | - |
| 1777684289 | 6.67° C | 62% | 1026.6 hPa | 0 mm | - | 0 W/m² | - |
| 1777683998 | 6.67° C | 61% | 1026.6 hPa | 0 mm | - | 0 W/m² | - |
| 1777683683 | 6.67° C | 62% | 1026.6 hPa | 0 mm | - | 0 W/m² | - |
| 1777683388 | 6.67° C | 61% | 1026.5 hPa | 0 mm | - | 0 W/m² | - |
| 1777683092 | 6.67° C | 62% | 1026.6 hPa | 0 mm | - | 0 W/m² | - |
| 1777682797 | 6.67° C | 64% | 1026.5 hPa | 0 mm | - | 0 W/m² | - |
* Rain latest hour (hover to see other rain measurements)
** Current wind speed in m/s (hover to see current wind gust speed)